Location: Boiro
(42.6475°N, 8.8834°W)
Time: 01:25:58
(UTC+01:00)

S-56A Canister/Altair - Pass Details

Date: 03 December 2021
Orbit: 634 x 2499 km, 38.9° (Epoch: 26 January)

Event Time Altitude Azimuth Distance (km) Brightness Sun altitude
Exits shadow 06:58:45 23° 228° (SW) 1,477 8.7 -19.5°
Maximum altitude 06:59:42 24° 210° (SSW) 1,391 8.7 -19.3°
Drops below altitude 10° 07:03:19 10° 155° (SSE) 2,014 10.2 -18.7°
Sets 07:05:52 0° 141° (SE) 2,911 11.4 -18.2°
